Flag for Germany Weather past 2 weeks in Gorleben, Lower Saxony, Germany

Now
43 °F

Passing clouds.


Feels Like: 43 °F
Forecast: 54 / 78 °F
Wind: 1 mph from South

Location: Marnitz

Current Time: Aug 1, 2015 at 6:30:40 AM

Latest Report: Aug 1, 2015 at 5:00 AM


Visibility: 22 mi

Pressure: 30.10 "Hg

Humidity: 97%

Dew point: 42 °F

Location of GorlebenLocation

Historic Weather in Gorleben — Graph

°F

Gorleben temperature yesterday

Maximum temperature yesterday: 63 °F (at 4:00 PM)
Minimum temperature yesterday: 47 °F (at 11:00 PM)
Average temperature yesterday: 56 °F

Past Weeks' High & Low Weather Summary

 TemperatureHumidityPressure
High88 °F (Jul 17, 7:00 PM)98% (Jul 25, 7:00 AM)30.11 "Hg (Jul 25, 7:00 AM)
Low43 °F (Aug 1, 5:00 AM)35% (Jul 17, 8:00 PM)29.44 "Hg (Jul 25, 4:00 PM)
Average63 °F74%29.81 "Hg
* Reported Jul 17 5:00 AM — Aug 1 5:00 AM, Gorleben, Weather by CustomWeather, © 2015

Note: Actual official high and low records may vary slightly from our data, if they occured in-between our weather recording intervals... More about our weather records

Advertising

Gorleben weather history for previous 24 hours

 ConditionsComfort  
Time TempWeatherWind HumidityBarometerVisibility
5:00 AM
Sat, Aug 1
43 °FPassing clouds.1 mph97%30.10 "Hg22 mi
4:00 AM44 °FOvercast.1 mph96%30.11 "Hg31 mi
3:00 AM45 °FPassing clouds.1 mph91%30.11 "Hg34 mi
2:00 AM44 °FPassing clouds.1 mph95%30.10 "Hg31 mi
1:00 AM46 °FClear.1 mph90%30.10 "Hg37 mi
12:00 AM46 °FClear.1 mph91%30.09 "Hg40 mi
11:00 PM
Fri, Jul 31
47 °FPassing clouds.1 mph92%30.09 "Hg37 mi
10:00 PM51 °FClear.1 mph79%30.08 "Hg28 mi
9:00 PM55 °FScattered clouds.1 mph76%30.07 "Hg7 mi
8:00 PM60 °FOvercast.2 mph57%30.06 "Hg43 mi
7:00 PM61 °FPartly sunny.5 mph55%30.06 "Hg43 mi
6:00 PM62 °FOvercast.5 mph52%30.06 "Hg43 mi
5:00 PM61 °FOvercast.5 mph59%30.07 "Hg40 mi
4:00 PM63 °FOvercast.3 mph52%30.06 "Hg43 mi
3:00 PM61 °FOvercast.6 mph57%30.07 "Hg43 mi
2:00 PM58 °FOvercast.5 mph68%30.08 "Hg43 mi
1:00 PM59 °FOvercast.6 mph59%30.06 "Hg43 mi
12:00 PM60 °FOvercast.3 mph61%30.06 "Hg43 mi
11:00 AM59 °FOvercast.5 mph66%30.05 "Hg43 mi
10:00 AM58 °FOvercast.5 mph70%30.04 "Hg43 mi
9:00 AM57 °FScattered clouds.5 mph68%30.03 "Hg28 mi
8:00 AM54 °FSunny.3 mph82%30.02 "Hg31 mi
7:00 AM50 °FScattered clouds.3 mph93%30.01 "Hg22 mi
Weather by CustomWeather, © 2015

See weather overviewHow to use our weather pages